CDT,Max TemperatureF,Mean TemperatureF,Min TemperatureF,Max Dew PointF,MeanDew PointF,Min DewpointF,Max Humidity, Mean Humidity, Min Humidity, Max Sea Level PressureIn, Mean Sea Level PressureIn, Min Sea Level PressureIn, Max VisibilityMiles, Mean VisibilityMiles, Min VisibilityMiles, Max Wind SpeedMPH, Mean Wind SpeedMPH, Max Gust SpeedMPH,PrecipitationIn, CloudCover, Events, WindDirDegrees
2012-6-1,69,56,43,52,43,39,96,67,37,30.01,29.92,29.82,10,10,10,18,7,23,0.00,3,,272
2012-6-2,74,63,51,54,50,44,96,66,35,29.83,29.80,29.76,10,9,3,18,9,25,0.00,4,,310
2012-6-3,88,70,51,60,54,47,83,61,39,29.84,29.77,29.68,10,10,10,23,10,32,T,3,,170
2012-6-4,84,70,56,57,54,52,86,62,37,29.94,29.89,29.77,10,10,10,12,6,17,0.00,1,,16
2012-6-5,85,72,58,59,55,49,86,59,32,29.96,29.93,29.89,10,10,10,17,8,23,0.00,1,,40
2012-6-6,82,72,62,58,56,54,78,62,45,30.03,29.99,29.95,10,10,10,22,14,31,0.00,1,,150
2012-6-7,82,73,63,63,59,54,78,62,45,30.14,30.06,30.00,10,10,4,20,10,25,0.18,3,Rain-Thunderstorm,182
2012-6-8,88,75,62,59,56,54,84,59,34,30.03,29.90,29.78,10,10,10,24,14,31,0.00,0,,204
2012-6-9,90,76,61,57,54,50,72,50,27,29.79,29.71,29.62,10,10,10,28,16,35,0.00,0,,180
2012-6-10,92,78,64,70,63,56,93,65,36,29.78,29.68,29.60,10,8,1,33,18,47,0.81,5,Rain-Thunderstorm,214
2012-6-11,75,65,54,62,52,39,100,66,31,30.05,29.87,29.72,10,9,4,26,14,33,0.01,1,,280
2012-6-12,70,58,45,47,41,37,83,57,31,30.23,30.16,30.07,10,10,10,17,7,22,0.00,0,,325
2012-6-13,77,67,57,53,50,45,80,59,38,30.15,30.00,29.86,10,10,5,28,15,35,0.15,3,Rain,163
2012-6-14,87,76,64,70,63,52,90,69,48,29.85,29.80,29.74,10,8,0,51,18,61,0.92,4,Fog-Rain-Thunderstorm,207
2012-6-15,75,70,65,67,65,63,100,87,73,30.02,29.94,29.85,10,9,5,20,5,23,0.05,4,Rain-Thunderstorm,5
2012-6-16,80,68,56,66,62,49,93,69,45,29.95,29.91,29.86,10,8,2,20,8,25,0.00,3,,291
2012-6-17,85,70,54,70,58,49,83,62,40,29.93,29.73,29.46,10,10,10,31,15,37,0.00,1,,194
2012-6-18,89,80,70,73,68,66,90,70,50,29.59,29.49,29.42,10,10,8,21,8,25,0.00,1,,188
2012-6-19,92,83,74,72,69,66,87,68,49,29.69,29.63,29.57,10,10,8,35,20,45,0.00,0,,176
2012-6-20,78,69,59,68,64,57,97,81,64,29.96,29.79,29.65,10,8,1,23,10,31,0.92,6,Rain-Thunderstorm,290
2012-6-21,77,68,58,58,55,51,93,67,40,30.06,30.02,29.96,10,10,10,17,10,25,0.00,0,,291
2012-6-22,81,68,55,61,57,52,93,71,48,30.07,30.02,29.94,10,10,10,12,6,16,0.00,1,,239
2012-6-23,79,70,61,66,62,59,93,79,64,29.95,29.91,29.86,10,10,9,20,10,24,0.06,2,Rain,170
2012-6-24,84,74,64,70,66,63,93,76,58,30.01,29.96,29.90,10,8,3,18,8,25,0.00,3,,72
2012-6-25,78,70,62,65,60,52,90,71,57,30.11,30.05,29.98,10,10,10,14,11,22,0.00,1,,97
2012-6-26,82,70,57,62,54,48,80,62,43,30.00,29.87,29.71,10,10,10,25,16,31,0.00,0,,153
2012-6-27,95,82,68,79,67,55,91,70,49,29.72,29.65,29.62,10,10,7,23,12,30,0.00,0,,195
2012-6-28,86,76,65,75,64,54,94,64,34,29.95,29.88,29.73,10,9,6,18,8,24,T,1,,20
2012-6-29,85,75,64,72,65,60,93,74,55,29.91,29.86,29.79,10,10,9,13,3,21,0.00,0,,128
2012-6-30,87,75,62,74,68,61,93,75,57,29.87,29.85,29.82,10,9,7,10,4,13,0.00,0,,75